Steven Brobbey

Recruteur - PSV
4 Déc 2028
Lundi
Processus

Personnalité

Adaptabilité (9) Ambition (7) Controverse (12) Loyauté (16) Pression (16) Professionnalisme (7) Sportivité (5) Tempérament (2)

Profil

Style d'entraînement Démocratique
Diplôme National A
Détermination 15
Gestion des joueurs 6
Motivation 16
Discipline 13
Satisfaction professionnelle
96%
Fatigue
0%
Rôle Recruteur
Salaire 18.8K p/s
Contrat 14.03.2029

Performance

Comportement Bon
Efficacité de l'entraînement
58%
Développement des joueurs
45%
Prévention des blessures
40%
Mise en place tactique
80%

Événements récents

A participé à une réunion de recrutement maintenant
A recommandé une cible de transfert maintenant
A recommandé une cible de transfert maintenant
A participé à une réunion de recrutement 7j
A recommandé une cible de transfert 7j
A recommandé une cible de transfert 7j
A recommandé une cible de transfert 7j
A recommandé une cible de transfert 7j

Suivi en cours

69
Joueur Club Statut Capacité Confiance Observé Dernière observation Dernier vote
Ties Wieggers De Graafschap Actif 126 / 126 30% 1 / 1m 08.11.2028 -
Tyrique Mercera Groningen Actif 126 / 118 86% 1 21.08.2028 Approuver
Temirlan Anarbekov Kairat Actif 123 / 127 40% 1 17.08.2028 -
Alex Kouto Horio Pisano Nagoya Grampus Actif 119 / 138 40% 1 17.08.2028 -
Valerio Boffelli Cavese Actif 114 / 117 40% 2 16.08.2028 -
Muhammadyusuf Sobirov Bunyodkor Actif 113 / 133 40% 1 16.08.2028 -
Alexey Ploschadny Noah Actif 124 / 134 40% 1 16.08.2028 -
Karl Etta Eyong Real Sociedad Actif 154 / 154 40% 1 14.08.2028 -
Lorenzo Colombo Genoa Actif 145 / 139 40% 1 14.08.2028 -
Cristian Santander Barranquilla Actif 120 / 119 40% 1 07.08.2028 -
Guillaume Restes Toulouse FC Perdu 149 / 157 40% 1 24.07.2028 -
Robert Cook Accrington Stanley Actif 114 / 112 40% 1 24.07.2028 -
Jorthy Mokio ADO Den Haag Actif 136 / 147 40% 1 17.07.2028 -
Riquelme Thompson-Jones Accrington Stanley Négociation 115 / 121 40% 1 17.07.2028 -
Simone Suppa Virtus Verona Actif 88 / 95 40% 1 17.07.2028 -
Ryunosuke Sato Eibar Actif 139 / 132 40% 9 10.07.2028 -
Héctor Fort Real Sociedad Actif 148 / 154 40% 7 10.07.2028 -
Aarón Ochoa Málaga Actif 120 / 121 40% 3 10.07.2028 -
Joaquín Panichelli Twente Rapport prêt 148 / 146 86% 1 03.07.2028 -
Tristan van Gilst Heracles Rapport prêt 126 / 130 86% 1 26.06.2028 -
Pau Cubarsí Real Sociedad Actif 160 / 166 40% 1 21.06.2028 -
Cheveyo Tsawa Club Brugge Actif 126 / 137 40% 1 21.06.2028 -
Mohammed El Âdfaoui Westerlo Actif 118 / 128 40% 1 21.06.2028 -
Esmir Bajraktarević De Graafschap Rapport prêt 131 / 139 86% 1 12.06.2028 -
Gaoussou Diarra Heerenveen Perdu 128 / 123 86% 1 07.06.2028 -
Illaijh de Ruijter ADO Den Haag Rapport prêt 120 / 124 86% 1 04.06.2028 -
Ricardo Pepi Mallorca Actif 150 / 147 40% 2 01.06.2028 -
Pau Víctor Braga Actif 146 / 148 40% 1 01.06.2028 -
Jayden Danns Bradford City Actif 138 / 137 40% 1 01.06.2028 -
Nicolò Tresoldi Club Brugge Actif 138 / 139 40% 1 31.05.2028 -
Ryan McAidoo Oldham Athletic Actif 123 / 137 40% 5 29.05.2028 -
Rio Ngumoha Plymouth Argyle Actif 144 / 149 40% 2 29.05.2028 -
Mateus Mané Burnley Actif 144 / 152 40% 4 28.05.2028 -
Babis Kostoulas Oxford United Actif 141 / 138 40% 4 27.05.2028 -
Trey Nyoni Rotherham United Actif 141 / 137 40% 4 27.05.2028 -
Eli Junior Kroupi Bournemouth Actif 147 / 149 40% 4 26.05.2028 -
Amin Nabizada Exeter City Actif 111 / 119 40% 4 25.05.2028 -
Ibrahim Fullah Charlton Athletic Actif 120 / 128 40% 2 25.05.2028 -
Kevin Fulham Actif 157 / 156 40% 2 25.05.2028 -
Shea Lacey Crystal Palace Actif 132 / 137 40% 1 23.05.2028 -
Josh Nichols Oldham Athletic Actif 120 / 124 40% 7 21.05.2028 -
Luca Williams-Barnett Walsall Actif 125 / 124 40% 5 20.05.2028 -
Ez Abde Betis Actif 159 / 156 40% 2 20.05.2028 -
Ben Gannon Doak Charlton Athletic Actif 153 / 152 40% 1 20.05.2028 -
Honest Ahanor Atalanta Actif 137 / 140 40% 5 17.05.2028 -
Gabe Forsyth Colchester United Actif 111 / 110 40% 2 17.05.2028 -
Omar Khedr Gillingham Actif 116 / 121 40% 4 16.05.2028 -
Jorge Salinas Racing Santander Actif 135 / 145 40% 2 15.05.2028 -
Ryan Kavuma-McQueen Accrington Stanley Actif 119 / 126 40% 6 14.05.2028 -
Jan Bürger Northampton Town Actif 123 / 131 40% 4 13.05.2028 -
Jonathan Dubasin Osasuna Actif 151 / 156 40% 1 11.05.2028 -
Jaidon Anthony Derby County Actif 142 / 131 40% 1 10.05.2028 -
Malick Fofana Sunderland Actif 151 / 155 40% 1 10.05.2028 -
Iliman N'Diaye Everton Actif 163 / 168 40% 1 10.05.2028 -
Hugo Camberos Dorados Actif 136 / 142 40% 4 07.05.2028 -
Ben Broggio Mansfield Town Actif 110 / 125 40% 5 07.05.2028 -
Jan Virgili Club Brugge Actif 137 / 140 40% 2 06.05.2028 -
Marc Bernal Sevilla Actif 146 / 149 40% 1 06.05.2028 -
Gilberto Mora Guadalajara Actif 141 / 140 40% 4 03.05.2028 -
Sindre Walle Egeli Udinese Actif 138 / 145 40% 4 01.05.2028 -
Mustafa Hekimoğlu Antalyaspor Actif 133 / 129 40% 1 30.04.2028 -
Igor Tyjon Barrow AFC Actif 117 / 131 40% 1 30.04.2028 -
Gabriel Mec Feirense Actif 125 / 130 40% 1 19.04.2028 -
Julien Duranville Olympique Lyonnais Actif 138 / 142 40% 2 14.04.2028 -
Oscar Schwartau Norwich City Actif 130 / 141 40% 1 09.04.2028 -
Luca Meirelles Kudrivka Actif 120 / 126 40% 1 06.04.2028 -
Mexx Meerdink AZ Actif 132 / 120 86% 1 18.01.2027 Approuver
Victor Jensen Utrecht Actif 120 / 134 83% 1 24.08.2026 Approuver
Alonzo Engwanda Utrecht Actif 122 / 125 83% 1 17.08.2026 Approuver